Regional Weather Roundup
Issued by NWS

Home | Current Version | Previous Version | Text Only | Print | Product List | Glossary Off
Versions: 1 2 3 4 5 6 7 8 9 10 11 12 13 14 15 16 17 18 19 20 21 22 23 24 25 26 27 28 29 30 31 32 33 34 35 36 37 38 39 40 41 42 43 44 45 46 47 48 49 50

000
ASUS45 KABQ 291210
RWRNM
NEW MEXICO REGIONAL WEATHER ROUNDUP
NATIONAL WEATHER SERVICE ALBUQUERQUE NM
600 AM MDT SAT AUG 29 2015

NOTE: "FAIR" MEANS FEW OR NO CLOUDS BELOW 12,000 FEET AGL WITH NO
       SIGNIFICANT WEATHER OR OBSTRUCTIONS TO VISION.

      THIS PRODUCT IS RELEASED AS TWO VERSIONS.  ONE VERSION NEAR
      THE TOP OF THE HOUR CONTAINING PRELIMINARY DATA FROM ALBUQUERQUE
      AND OTHER STATIONS.  A FINAL VERSION WITH ADDITIONAL DATA IS
      ISSUED ABOUT 10 MINUTES AFTER THE HOUR.

NMZ501-503-504-510>518-291300-
NORTHWEST PLATEAU/NORTHCENTRAL MOUNTAINS

CITY           SKY/WX    TMP DP  RH WIND       PRES   REMARKS
FARMINGTON     CLEAR     63  47  55 E9        30.25R
6HR MIN TEMP:  60; 6HR MAX TEMP:  67;

LOS ALAMOS     PTCLDY    60  47  61 SW7       30.40S
SANTA FE       MOCLDY    59  52  77 CALM      30.35R
6HR MIN TEMP:  57; 6HR MAX TEMP:  67; 6HR PCP:  0.03;

TAOS           PTCLDY    52  36  54 NE5       30.43S
ANGEL FIRE     FOG       41  40  99 CALM      30.51S VSB 1/2

$$
NMZ402-403-502-505>509-291300-
WESTCENTRAL MOUNTAINS/SOUTHWEST MOUNTAINS

CITY           SKY/WX    TMP DP  RH WIND       PRES   REMARKS
GALLUP         CLEAR     49  43  80 W3        30.31S
6HR MIN TEMP:  49; 6HR MAX TEMP:  57;

GRANTS         CLEAR     57  51  80 SW8       30.35S
SILVER CITY      N/A     68  54  60 CALM      30.25R

$$
NMZ407-409-411-412-291300-
SOUTHERN DESERTS

CITY           SKY/WX    TMP DP  RH WIND       PRES   REMARKS
DEMING         PTCLDY    72  55  55 E8        30.15S
6HR MIN TEMP:  69; 6HR MAX TEMP:  79;

LAS CRUCES     PTCLDY    66  59  78 NW7       30.18R
HOLLOMAN AFB   MOCLDY    69  56  65 NE5       30.14S
ALAMOGORDO     MOCLDY    68  54  60 NE7       30.16S
T OR C         CLOUDY    68  56  65 NW5       30.20F
6HR MIN TEMP:  68; 6HR MAX TEMP:  75; 6HR PCP:  0.16;


$$
NMZ519>523-291300-
CENTRAL VALLEYS/CENTRAL HIGHLANDS

CITY           SKY/WX    TMP DP  RH WIND       PRES   REMARKS
ALBUQUERQUE    PTCLDY    70  51  51 E8        30.27F
6HR MIN TEMP:  70; 6HR MAX TEMP:  73; 6HR PCP: TRACE;

DOUBLE EAGLE   CLEAR     55  48  76 CALM      30.31S
MORIARTY ARPT  FAIR      49  47  91 CALM      30.35S
6HR MIN TEMP:  49; 6HR MAX TEMP:  62;

CLINES CORNERS PTCLDY    53  49  86 NW8       30.37S
6HR MIN TEMP:  50; 6HR MAX TEMP:  58; 6HR PCP: TRACE;

BELEN          FAIR      64  52  64 E5        30.26S
6HR MIN TEMP:  64; 6HR MAX TEMP:  73;

SOCORRO        FAIR      66  56  69 NW3       30.24R
6HR MIN TEMP:  65; 6HR MAX TEMP:  73;


$$
NMZ524>526-539-540-291300-
SOUTHCENTRAL MOUNTAINS

CITY           SKY/WX    TMP DP  RH WIND       PRES   REMARKS
RUIDOSO        MOCLDY    55  48  76 MISG      30.36S

$$
NMZ527>531-291300-
NORTHEAST HIGHLANDS/NORTHEAST PLAINS

CITY           SKY/WX    TMP DP  RH WIND       PRES   REMARKS
LAS VEGAS      CLEAR     50  46  86 NE3       30.37S
6HR MIN TEMP:  49; 6HR MAX TEMP:  56;

RATON          CLEAR     51  46  83 NE7       30.33R
6HR MIN TEMP:  50; 6HR MAX TEMP:  61;

CLAYTON        CLEAR     60  53  77 NW6       30.24R
6HR MIN TEMP:  59; 6HR MAX TEMP:  67;


$$
NMZ532>537-291300-
EASTCENTRAL PLAINS

CITY           SKY/WX    TMP DP  RH WIND       PRES   REMARKS
TUCUMCARI      MOCLDY    66  58  75 W5        30.16S
6HR MIN TEMP:  65; 6HR MAX TEMP:  70;

CANNON AFB     CLOUDY    67  58  73 NW9       30.17R
6HR MIN TEMP:  67; 6HR MAX TEMP:  71;

CLOVIS AIRPORT CLOUDY    64  57  77 NW9       30.17S

$$
NMZ028-029-538-291300-
SOUTHEAST PLAINS

CITY           SKY/WX    TMP DP  RH WIND       PRES   REMARKS
ROSWELL        PTCLDY    65  61  87 E5        30.15S
6HR MIN TEMP:  65; 6HR MAX TEMP:  68; 6HR PCP:  0.11;

ARTESIA        PTCLDY    66  66 100 NE3       30.16R
CARLSBAD       NOT AVBL


$$


USA.gov is the U.S. government's official web portal to all federal, state and local government web resources and services.